Weather History for Altus AFB, OK

Change the Weather History Date:

Tuesday, May 7, 2013

  Actual Average Record
Temperature  
Mean Temperature 68 °F -  
Max Temperature 86 °F 80 °F 100 °F (2011)
Min Temperature 50 °F 55 °F 42 °F (1999)
Cooling Degree Days 3    
Growing Degree Days 18 (Base 50)    
Moisture  
Dew Point 47 °F    
Average Humidity 46    
Maximum Humidity 92    
Minimum Humidity 23    
Precipitation  
Precipitation 0.00 in - - ()
Sea Level Pressure  
Sea Level Pressure 29.96 in    
Wind  
Wind Speed 11 mph (SE)    
Max Wind Speed 21 mph    
Max Gust Speed 28 mph    
Visibility 10 miles    
Events Rain    
Averages and records for this station are not official NWS values.
T = Trace of Precipitation, MM = Missing Value Source: NWS Daily Summary

Daily Weather History Graph

Daily Weather History Graph

Search for Another Location

Airport:

Trip Planner

Search our weather history database for the weather conditions in past years. The results will help you decide how hot, cold, wet, or windy it might be!

Date:

Astronomy

May. 07, 2013 Rise Set
Actual Time 6:40 AM CDT 8:27 PM CDT
Civil Twilight 6:13 AM CDT 8:54 PM CDT
Nautical Twilight 5:40 AM CDT 9:27 PM CDT
Astronomical Twilight 5:05 AM CDT 10:02 PM CDT
Moon 5:10 AM CDT (5/7) 6:32 PM CDT (5/7)
Length of Visible Light 14h 41m
Length of Day
13h 46m
Waning Crescent, 5% of the Moon is Illuminated
May 7
Waning Crescent
May 9
New
May 17
First Quarter
May 24
Full
May 31
Last Quarter

Hourly Weather History & Observations

Time (CDT) Temp. Dew Point Humidity Pressure Visibility Wind Dir Wind Speed Gust Speed Precip Events Conditions
12:58 AM 61.0 °F 49.3 °F 65% 30.06 in 10.0 mi SSW 6.9 mph - N/A   Overcast
1:58 AM 60.3 °F 50.2 °F 69% 30.04 in 10.0 mi SE 6.9 mph - N/A   Overcast
2:30 AM 60.8 °F 50.0 °F 68% 30.03 in 10.0 mi ESE 12.7 mph - N/A Rain Light Rain
2:39 AM 60.8 °F 50.0 °F 68% 29.99 in 10.0 mi ESE 17.3 mph - N/A   Scattered Clouds
2:58 AM 63.1 °F 49.6 °F 61% 29.96 in 10.0 mi ESE 16.1 mph - 0.00 in   Clear
3:58 AM 61.3 °F 49.6 °F 65% 29.99 in 10.0 mi SE 2.3 mph - N/A   Scattered Clouds
4:58 AM 58.8 °F 49.8 °F 72% 30.01 in 10.0 mi South 4.6 mph - N/A   Mostly Cloudy
5:58 AM 52.3 °F 47.8 °F 85% 30.01 in 10.0 mi East 6.9 mph - N/A   Partly Cloudy
6:58 AM 50.5 °F 48.2 °F 92% 30.01 in 10.0 mi ENE 10.4 mph - N/A   Mostly Cloudy
7:58 AM 57.2 °F 50.9 °F 79% 30.03 in 10.0 mi East 3.5 mph - N/A   Partly Cloudy
8:58 AM 65.8 °F 49.5 °F 55% 30.03 in 10.0 mi East 9.2 mph - N/A   Mostly Cloudy
9:56 AM 69.8 °F 46.4 °F 43% 30.07 in 10.0 mi SSE 8.1 mph - N/A Rain Light Rain
9:58 AM 69.8 °F 46.2 °F 43% 30.04 in 10.0 mi SSE 10.4 mph - N/A Rain Light Rain
10:06 AM 71.6 °F 46.4 °F 41% 30.07 in 10.0 mi South 8.1 mph - N/A   Mostly Cloudy
10:58 AM 72.5 °F 45.1 °F 37% 30.01 in 10.0 mi SE 15.0 mph - 0.00 in   Mostly Cloudy
11:58 AM 76.6 °F 46.8 °F 35% 30.01 in 10.0 mi South 17.3 mph 25.3 mph N/A   Clear
12:58 PM 79.9 °F 45.5 °F 30% 29.98 in 10.0 mi SSE 18.4 mph 26.5 mph N/A   Clear
1:58 PM 81.7 °F 45.1 °F 28% 29.95 in 10.0 mi SSE 13.8 mph 27.6 mph N/A   Partly Cloudy
2:27 PM 84.2 °F 46.4 °F 27% 29.96 in 10.0 mi SSE 19.6 mph 27.6 mph N/A   Clear
2:58 PM 84.0 °F 45.5 °F 26% 29.92 in 10.0 mi SE 12.7 mph 26.5 mph N/A   Clear
3:47 PM 84.2 °F 46.4 °F 27% 29.93 in 10.0 mi SE 17.3 mph 24.2 mph N/A Rain Light Rain
3:56 PM 86.0 °F 44.6 °F 23% 29.92 in 10.0 mi South 19.6 mph 24.2 mph N/A Rain Light Rain
3:58 PM 85.5 °F 45.3 °F 25% 29.88 in 10.0 mi South 20.7 mph 24.2 mph 0.00 in Rain Light Rain
4:58 PM 86.0 °F 44.2 °F 23% 29.86 in 10.0 mi South 18.4 mph 21.9 mph 0.00 in   Clear
5:58 PM 86.0 °F 44.6 °F 23% 29.85 in 10.0 mi South 16.1 mph 25.3 mph N/A   Clear
6:58 PM 84.7 °F 44.1 °F 24% 29.84 in 10.0 mi SSE 16.1 mph - N/A   Clear
7:58 PM 81.5 °F 43.9 °F 26% 29.83 in 10.0 mi SE 13.8 mph - N/A   Clear
8:58 PM 74.1 °F 46.2 °F 37% 29.83 in 10.0 mi SE 12.7 mph - N/A   Clear
9:58 PM 72.7 °F 47.3 °F 40% 29.85 in 10.0 mi SE 12.7 mph - N/A   Clear
10:58 PM 70.9 °F 48.6 °F 45% 29.86 in 10.0 mi SE 17.3 mph 23.0 mph N/A   Clear
11:58 PM 70.3 °F 48.6 °F 46% 29.86 in 10.0 mi SE 16.1 mph - N/A   Clear